Location: Bailey Volunteer Fire Department
(33.4359°N, 96.1680°W)
Time: 16:03:17
(UTC+00:00)

Cosmos 2333 Rocket - Pass Details

Date: 13 December 2025
Orbit: 837 x 865 km, 70.8° (Epoch: 14 January)

Event Time Altitude Azimuth Distance (km) Brightness Sun altitude
Exits shadow 12:07:28 12° 330° (NNW) 2,371 4.1 -14.8°
Maximum altitude 12:12:46 59° 253° (WSW) 981 2.3 -13.8°
Drops below altitude 10° 12:18:21 10° 175° (S) 2,473 5.0 -12.7°
Sets 12:20:48 0° 171° (S) 3,401 5.8 -12.2°
